SCP
0 0 0 0 0 0 0 0 0 0 0 0 0 0 0 0 0 0 0 0 0 0 0 0 0 0 0 0 0 0 0 0 0 0 0 0 0 0 0 0 0 0 0 0
0 0 0 0 0 0 0 0 0 0 0 0 0 0 0 0 0 0 0 0 0 0 0 0 0 0 0 0 0 0 0 0 0 0 0 0 0 0 0 0 0 0 0 0
0 0 0 0 0 0 0 0 0 0 0 0 0 0 0 0 0 0 0 0 0 0 0 0 0 0 0 0 0 0 0 0 0 0 0 0 0 0 0 0 0 0 0 0
0 0 0 0 0 0 0 0 0 0 0 0 0 0 0 0 0 0 0 0 0 0 0 0 0 0 0 0 0 0 0 0 0 0 0 0 0 0 0 0 0 0 0 0
0 0 0 0 0 0 0 0 0 0 0 0 0 0 0 0 0 0 0 0 0 0 0 0 0 0 0 0 0 0 0 0 0 0 0 0 0 0 0 0 0 0 0 0
0 0 0 0 0 0 0 0 0 0 0 0 0 0 0 0 0 0 0 0 0 0 0 0 0 0 0 0 0 0 0 0 0 0 0 0 0 0 0 0 0 0 0 0
0 0 0 0 0 0 0 0 0 0 0 0 0 0 0 0 0 0 0 0 0 0 0 0 0 0 0 0 0 0 0 0 0 0 0 0 0 0 0 0 0 0 0 0
0 0 0 0 0 0 0 0 0 0 0 0 0 0 0 0 0 0 0 0 0 0 0 0 0 0 0 0 0 0 0 0 0 0 0 0 0 0 0 0 0 0 0 0
0 0 0 0 0 0 0 0 0 0 0 0 0 0 0 0 0 0 0 0 0 0 0 0 0 0 0 0 0 0 0 0 0 0 0 0 0 0 0 0 0 0 0 0
0 0 0 0 0 0 0 0 0 0 0 0 0 0 0 0 0 0 0 0 0 0 0 0 0 0 0 0 0 0 0 0 0 0 0 0 0 0 0 0 0 0 0 0
0 0 0 0 0 0 0 0 0 0 0 0 0 0 0 0 0 0 0 0 0 0 0 0 0 0 0 0 0 0 0 0 0 0 0 0 0 0 0 0 0 0 0 0
0 0 0 0 0 0 0 0 0 0 0 0 0 0 0 0 0 0 0 0 0 0 0 0 0 0 0 0 0 0 0 0 0 0 0 0 0 0 0 0 0 0 0 0
0 0 0 0 0 0 0 0 0 0 0 0 0 0 0 0 0 0 0 0 0 0 0 0 0 0 0 0 0 0 0 0 0 0 0 0 0 0 0 0 0 0 0 0
0 0 0 0 0 0 0 0 0 0 0 0 0 0 0 0 0 0 0 0 0 0 0 0 0 0 0 0 0 0 0 0 0 0 0 0 0 0 0 0 0 0 0 0
0 0 0 0 0 0 0 0 0 0 0 0 0 0 0 0 0 0 0 0 0 0 0 0 0 0 0 0 0 0 0 0 0 0 0 0 0 0 0 0 0 0 0 0
0 0 0 0 0 0 0 0 0 0 0 0 0 0 0 0 0 0 0 0 0 0 0 0 0 0 0 0 0 0 0 0 0 0 0 0 0 0 0 0 0 0 0 0
0 0 0 0 0 0 0 0 0 0 0 0 0 0 0 0 0 0 0 0 0 0 0 0 0 0 0 0 0 0 0 0 0 0 0 0 0 0 0 0 0 0 0 0
0 0 0 0 0 0 0 0 0 0 0 0 0 0 0 0 0 0 0 0 0 0 0 0 0 0 0 0 0 0 0 0 0 0 0 0 0 0 0 0 0 0 0 0
0 0 0 0 0 0 0 0 0 0 0 0 0 0 0 0 0 0 0 0 0 0 0 0 0 0 0 0 0 0 0 0 0 0 0 0 0 0 0 0 0 0 0 0
0 0 0 0 0 0 0 0 0 0 0 0 0 0 0 0 0 0 0 0 0 0 0 0 0 0 0 0 0 0 0 0 0 0 0 0 0 -0 0 0 0 0 0 0
0 0 0 0 0 0 0 0 0 0 0 0 0 0 0 0 0 0 0 0 0 0 0 0 0 0 0 0 0 0 0 0 0 0 0 0 0 -0 0 0 0 0 0 0
0 0 0 0 0 0 0 0 0 0 0 0 0 0 0 0 0 0 0 0 0 0 0 0 0 0 0 0 0 0 0 0 0 0 0 0 0 -0 0 0 0 0 0 0
0 0 0 0 0 0 0 0 0 0 0 0 0 0 0 0 0 0 0 0 0 0 0 0 0 0 0 0 0 0 0 0 0 0 0 0 0 0 -0 0 0 0 0 0
0 0 0 0 0 0 0 0 0 0 0 0 0 0 0 0 0 0 0 0 0 0 0 0 0 0 0 0 0 0 0 0 0 0 0 0 0 0 0 0 0 0 0 0
0 0 0 0 0 0 0 -0 0 0 0 0 0 0 0 0 0 0 0 0 0 0 0 0 0 0 0 0 0 0 0 0 0 0 0 0 0 0 0 0 0 0 0 0
0 0 0 0 0 0 0 -0 0 0 0 0 0 0 0 0 0 0 0 0 0 0 0 0 0 0 0 0 0 0 0 0 0 0 0 0 0 0 0 0 0 0 0 0
Wind_Speed
1 3 2 6 6 3 2 2 4 4 2 1 5 8 8 3 2 4 4 3 3 4 3 1 2 2 2 3 3 3 3 2 2 2 2 2 2 1 1 1 2 2 2 3
3 3 5 3 2 2 2 3 4 3 1 2 4 8 7 4 4 5 5 5 4 2 0 1 2 2 2 3 2 2 2 2 2 1 1 2 2 1 1 1 1 2 2 2
5 4 3 3 2 3 4 4 4 4 3 2 3 7 4 3 2 1 2 3 3 3 2 2 2 1 2 2 3 3 2 2 1 2 2 2 2 2 1 0 0 0 1 2
3 3 1 2 3 4 6 4 4 2 1 3 0 6 6 4 3 2 3 2 2 2 2 2 2 2 2 2 2 2 2 2 2 2 3 3 2 1 1 1 0 0 1 1
3 1 1 3 4 4 4 1 2 2 2 2 1 3 9 2 3 5 5 4 3 2 3 3 3 3 2 1 2 2 2 2 2 2 2 2 1 1 1 1 1 0 0 1
3 1 2 3 2 3 1 2 3 2 2 4 5 5 9 3 5 4 3 3 3 2 2 2 2 2 2 2 2 2 2 2 1 2 2 2 2 1 2 1 1 0 0 0
3 2 1 1 1 1 2 4 3 4 2 6 2 4 10 5 4 3 3 4 3 2 2 1 1 2 2 2 2 2 2 1 1 1 1 1 1 2 3 2 2 1 0 1
2 4 4 2 3 4 3 5 6 5 5 5 2 7 7 3 2 2 2 2 1 2 2 2 3 3 2 2 2 2 2 1 1 1 1 0 1 1 1 1 1 2 1 1
5 5 1 1 1 4 4 4 3 3 0 2 6 6 7 2 2 1 1 0 1 2 3 2 2 2 2 2 2 2 2 1 1 1 1 1 1 1 0 1 1 1 1 1
5 3 2 0 1 1 2 4 3 4 3 4 6 6 6 3 4 3 2 2 3 2 1 2 2 2 2 2 2 1 2 2 1 1 1 1 1 1 1 1 1 1 1 1
3 4 1 1 5 6 3 3 3 3 4 5 5 8 6 6 5 4 4 4 3 3 3 3 3 2 2 1 1 2 1 1 1 1 1 1 1 1 0 1 1 1 1 1
4 4 3 5 3 2 5 6 7 6 5 4 4 10 3 4 4 4 4 3 2 2 2 2 2 2 2 2 2 2 2 2 2 2 1 1 1 1 1 1 1 1 1 1
6 5 1 3 2 1 3 4 5 4 3 4 6 10 1 1 2 3 3 3 3 2 2 2 2 2 3 3 3 3 3 3 2 1 2 1 1 1 2 2 2 1 2 1
5 5 8 10 6 5 5 5 6 6 6 7 11 12 8 6 6 6 4 4 3 3 3 3 3 3 3 3 3 3 3 2 2 2 2 2 2 2 2 2 2 2 2 2
4 5 6 7 4 3 6 8 9 11 11 11 12 12 14 9 8 6 5 4 3 4 4 4 4 4 3 3 3 3 2 2 2 2 3 3 2 2 1 1 2 2 2 2
3 4 2 5 4 5 8 11 12 13 13 14 13 16 12 8 5 5 6 6 6 6 6 5 5 4 4 4 4 3 3 3 2 3 3 2 1 1 1 2 1 2 2 2
4 4 3 4 2 2 11 14 15 11 11 11 16 17 6 6 7 8 7 7 7 7 6 6 6 6 5 5 4 5 4 3 3 3 3 2 2 2 2 2 2 2 2 2
7 5 3 1 1 10 11 5 10 11 12 13 11 9 8 10 8 6 7 7 7 6 6 6 5 5 4 3 3 3 3 3 3 3 3 3 2 3 2 2 3 3 2 2
6 7 4 3 5 11 9 5 8 10 11 12 15 13 9 5 2 6 6 6 6 6 5 5 4 4 3 4 4 3 3 3 3 3 3 3 3 3 3 4 3 3 2 2
3 4 5 5 5 10 8 4 4 4 8 8 10 11 8 3 3 8 5 5 4 4 4 3 3 3 3 3 3 4 4 4 4 4 4 3 4 4 4 4 3 2 2 3
5 5 7 8 8 12 8 4 7 6 9 4 7 9 8 8 9 5 2 3 3 3 3 3 3 3 4 3 3 4 4 5 4 3 2 3 3 3 3 3 2 2 2 2
11 9 9 7 8 14 5 8 10 9 2 2 4 5 7 7 5 4 4 4 4 3 3 3 3 3 2 3 4 4 5 4 2 2 2 2 2 2 2 2 2 2 2 2
11 12 9 12 12 5 7 9 6 3 4 4 4 4 5 5 5 5 4 4 3 3 3 2 3 3 2 2 4 5 4 2 2 2 3 3 2 2 2 3 3 2 2 2
6 4 5 7 10 7 6 5 5 4 5 5 4 4 4 5 5 5 4 3 3 3 3 2 2 3 3 2 3 4 3 2 3 3 3 3 2 2 2 2 2 3 3 3
8 7 6 9 8 4 6 8 8 6 4 4 3 3 4 5 5 5 5 4 4 3 2 2 3 4 4 3 3 3 2 3 3 3 3 3 3 3 2 2 3 3 4 5
7 9 10 11 8 7 7 5 5 5 5 5 4 4 4 4 5 5 5 4 3 3 2 3 3 4 4 3 3 3 3 4 4 3 3 3 2 2 2 2 1 4 4 5
Wind_Direction
73 86 196 214 208 202 176 210 250 253 253 212 248 264 277 265 236 238 233 226 232 240 252 146 140 136 116 106 114 122 115 99 122 143 162 171 180 168 154 158 155 159 158 155
58 251 238 223 218 213 235 261 267 287 313 238 277 278 275 247 229 219 216 219 225 237 10 94 99 105 124 132 135 130 136 135 133 153 180 176 164 156 154 139 135 142 151 155
186 241 225 188 202 218 237 228 242 260 323 314 313 305 293 279 259 263 238 223 221 206 194 168 145 138 126 137 156 159 151 138 126 100 82 71 72 65 67 100 176 183 158 156
233 274 229 192 220 201 243 231 229 239 330 294 342 291 284 267 285 275 255 237 229 226 192 174 164 160 173 182 163 147 135 119 110 106 113 116 122 141 204 204 202 196 166 146
246 235 201 219 231 199 226 224 208 212 203 291 270 245 284 288 265 257 244 235 230 216 189 178 180 183 169 139 128 130 118 106 104 105 120 129 106 104 99 75 81 136 82 94
246 262 213 224 241 202 176 61 46 53 86 270 228 204 278 239 232 244 240 233 223 210 196 184 162 124 98 83 86 91 105 95 99 110 113 133 125 110 115 115 126 341 330 267
288 269 279 153 103 34 94 96 32 357 342 254 222 210 255 251 228 207 221 228 216 201 185 169 137 136 138 132 131 123 126 113 105 120 126 146 150 159 168 175 181 182 250 292
207 265 232 198 182 185 195 157 166 200 232 275 279 236 256 247 262 252 239 214 190 195 199 190 189 183 177 168 160 154 161 163 152 162 182 156 149 168 192 193 184 197 222 235
192 246 295 172 137 152 164 203 186 144 114 278 265 275 296 276 304 308 301 231 233 221 209 201 192 182 177 175 178 178 175 175 196 198 184 166 178 168 182 217 201 209 230 235
171 225 270 306 65 316 159 150 116 147 180 250 278 262 247 244 248 255 250 240 249 247 221 207 203 198 191 184 180 165 173 191 202 204 203 200 215 212 196 188 227 228 231 222
157 174 277 160 199 199 159 167 170 163 178 187 258 265 224 205 212 221 238 233 227 221 216 212 213 208 185 164 166 173 184 201 216 223 228 202 207 223 212 223 247 239 231 212
169 148 224 239 230 219 192 189 167 177 222 207 230 265 236 207 217 218 235 242 228 218 215 212 209 198 192 193 197 198 203 217 227 223 219 227 212 200 218 246 263 248 230 220
153 145 177 316 292 275 231 212 188 167 157 192 213 258 251 207 237 237 231 245 236 224 218 207 203 212 217 213 213 215 218 224 232 216 207 216 218 216 230 247 256 256 237 230
148 167 192 210 215 184 210 215 187 168 196 219 227 248 264 258 260 266 258 248 243 231 219 216 222 227 228 222 216 218 229 225 220 213 209 219 229 231 236 245 245 247 236 222
150 201 222 245 250 213 222 221 204 205 212 220 239 244 254 253 247 250 249 242 241 240 229 222 225 232 231 225 221 216 222 226 211 208 214 224 233 233 236 239 247 259 252 233
161 192 205 265 253 240 254 238 223 226 227 235 253 260 256 256 251 252 246 234 239 242 238 234 232 231 230 225 220 216 221 223 208 210 220 217 211 221 226 228 237 252 258 252
170 153 166 252 286 323 258 226 209 212 214 208 231 244 251 252 244 236 232 227 231 238 238 234 231 227 230 223 214 212 215 210 207 214 220 212 211 221 228 225 228 240 245 247
167 161 170 206 98 239 244 192 193 209 229 219 231 243 236 240 246 236 224 220 233 234 231 233 232 230 227 218 206 209 204 203 209 216 220 215 216 225 226 218 223 233 237 234
180 166 165 172 229 267 282 224 186 199 244 224 227 242 250 256 310 274 232 215 225 226 224 223 221 217 214 208 197 191 201 202 210 219 221 221 218 221 219 220 223 226 224 238
172 169 171 180 207 240 246 209 169 143 261 233 211 228 233 179 235 258 228 215 224 222 213 211 204 200 208 212 188 189 203 206 219 226 227 226 217 213 216 220 225 224 226 235
170 188 201 208 231 256 247 186 130 182 243 219 198 211 205 202 222 243 220 222 215 213 210 198 194 206 216 204 185 200 208 220 230 235 232 230 218 216 215 211 213 212 225 231
181 183 197 185 217 248 205 150 185 216 223 196 201 205 209 225 241 241 235 230 220 217 214 199 202 224 221 193 187 207 223 230 216 210 221 227 221 215 203 192 204 201 201 213
203 197 192 199 217 233 178 196 215 202 215 227 221 226 213 225 235 235 237 234 227 219 219 208 204 225 231 202 194 214 232 212 189 199 213 214 214 212 205 196 198 196 197 211
231 202 198 234 248 243 238 244 245 225 225 234 228 223 204 223 235 242 245 240 232 230 217 207 202 222 241 228 219 222 219 189 186 204 213 204 197 206 208 212 210 204 204 211
214 186 204 239 254 270 253 232 232 235 236 247 252 236 226 224 238 238 241 242 239 239 225 204 209 224 240 237 232 220 196 177 193 209 207 204 202 201 212 225 225 224 224 220
205 194 202 229 220 209 234 229 214 220 235 236 240 252 247 224 233 243 246 244 235 233 227 222 224 227 236 231 232 219 196 187 191 205 204 202 201 202 204 213 267 268 260 257